Time,TemperatureF,DewpointF,PressureIn,WindDirection,WindDirectionDegrees,WindSpeedMPH,WindSpeedGustMPH,Humidity,HourlyPrecipIn,Conditions,Clouds,dailyrainin,SoftwareType,DateUTC
2013-06-20 00:02:00,64.0,50.0,30.08,ESE,116,1.0,4.0,60,0.00,,,0.00,,2013-06-20 05:02:00,
2013-06-20 00:12:00,64.0,50.0,30.08,ESE,116,1.0,4.0,60,0.00,,,0.00,,2013-06-20 05:12:00,
2013-06-20 00:22:00,64.0,51.0,30.08,SE,144,2.0,4.0,62,0.00,,,0.00,,2013-06-20 05:22:00,
2013-06-20 00:33:00,64.0,51.0,30.08,East,98,2.0,5.0,63,0.00,,,0.00,,2013-06-20 05:33:00,
2013-06-20 00:44:00,64.0,51.0,30.08,East,98,2.0,5.0,63,0.00,,,0.00,,2013-06-20 05:44:00,
2013-06-20 00:53:00,63.0,50.0,30.08,ESE,103,2.0,5.0,62,0.00,,,0.00,,2013-06-20 05:53:00,
2013-06-20 01:02:00,63.0,50.0,30.08,ESE,105,1.0,5.0,62,0.00,,,0.00,,2013-06-20 06:02:00,
2013-06-20 01:11:00,63.0,50.0,30.08,ESE,105,1.0,5.0,62,0.00,,,0.00,,2013-06-20 06:11:00,
2013-06-20 01:22:00,63.0,50.0,30.08,East,98,1.0,7.0,62,0.00,,,0.00,,2013-06-20 06:22:00,
2013-06-20 01:33:00,63.0,50.0,30.08,East,96,0.0,4.0,62,0.00,,,0.00,,2013-06-20 06:33:00,
2013-06-20 01:43:00,63.0,50.0,30.08,East,96,0.0,4.0,62,0.00,,,0.00,,2013-06-20 06:43:00,
2013-06-20 01:53:00,62.0,50.0,30.09,East,98,0.0,2.0,64,0.00,,,0.00,,2013-06-20 06:53:00,
2013-06-20 02:01:00,62.0,50.0,30.08,South,173,0.0,2.0,64,0.00,,,0.00,,2013-06-20 07:01:00,
2013-06-20 02:12:00,62.0,50.0,30.08,South,173,0.0,2.0,64,0.00,,,0.00,,2013-06-20 07:12:00,
2013-06-20 02:22:00,61.0,49.0,30.09,SSE,163,0.0,1.0,65,0.00,,,0.00,,2013-06-20 07:22:00,
2013-06-20 02:34:00,61.0,50.0,30.08,SE,138,0.0,2.0,66,0.00,,,0.00,,2013-06-20 07:34:00,
2013-06-20 02:44:00,61.0,50.0,30.08,SE,138,0.0,2.0,66,0.00,,,0.00,,2013-06-20 07:44:00,
2013-06-20 02:53:00,61.0,49.0,30.08,East,96,2.0,4.0,65,0.00,,,0.00,,2013-06-20 07:53:00,
2013-06-20 03:02:00,61.0,49.0,30.08,East,98,1.0,3.0,64,0.00,,,0.00,,2013-06-20 08:02:00,
2013-06-20 03:11:00,61.0,49.0,30.08,East,98,1.0,3.0,64,0.00,,,0.00,,2013-06-20 08:11:00,
2013-06-20 03:22:00,61.0,48.0,30.08,East,100,0.0,2.0,62,0.00,,,0.00,,2013-06-20 08:22:00,
2013-06-20 03:34:00,61.0,47.0,30.09,SE,134,0.0,3.0,61,0.00,,,0.00,,2013-06-20 08:34:00,
2013-06-20 03:43:00,61.0,47.0,30.09,SE,134,0.0,3.0,61,0.00,,,0.00,,2013-06-20 08:43:00,
2013-06-20 03:53:00,60.0,47.0,30.09,ESE,119,1.0,3.0,61,0.00,,,0.00,,2013-06-20 08:53:00,
2013-06-20 04:02:00,60.0,47.0,30.09,ESE,121,0.0,3.0,62,0.00,,,0.00,,2013-06-20 09:02:00,
2013-06-20 04:12:00,60.0,47.0,30.09,ESE,121,0.0,3.0,62,0.00,,,0.00,,2013-06-20 09:12:00,
2013-06-20 04:22:00,60.0,47.0,30.09,ESE,117,0.0,3.0,62,0.00,,,0.00,,2013-06-20 09:22:00,
2013-06-20 04:33:00,60.0,47.0,30.08,ESE,106,0.0,2.0,62,0.00,,,0.00,,2013-06-20 09:33:00,
2013-06-20 04:42:00,60.0,47.0,30.08,ESE,106,0.0,2.0,62,0.00,,,0.00,,2013-06-20 09:42:00,
2013-06-20 04:52:00,60.0,47.0,30.09,ESE,109,1.0,4.0,62,0.00,,,0.00,,2013-06-20 09:52:00,
2013-06-20 05:01:00,60.0,47.0,30.09,ESE,108,0.0,2.0,63,0.00,,,0.00,,2013-06-20 10:01:00,
2013-06-20 05:11:00,60.0,47.0,30.09,ESE,108,0.0,2.0,63,0.00,,,0.00,,2013-06-20 10:11:00,
2013-06-20 05:22:00,60.0,48.0,30.09,ESE,107,0.0,2.0,64,0.00,,,0.00,,2013-06-20 10:22:00,
2013-06-20 05:34:00,60.0,48.0,30.09,ESE,107,0.0,2.0,64,0.00,,,0.00,,2013-06-20 10:34:00,
2013-06-20 05:43:00,60.0,48.0,30.09,East,92,1.0,3.0,64,0.00,,,0.00,,2013-06-20 10:43:00,
2013-06-20 05:53:00,59.0,48.0,30.09,East,98,1.0,3.0,66,0.00,,,0.00,,2013-06-20 10:53:00,
2013-06-20 06:02:00,60.0,49.0,30.09,ESE,105,0.0,3.0,67,0.00,,,0.00,,2013-06-20 11:02:00,
2013-06-20 06:12:00,60.0,49.0,30.09,ESE,105,0.0,3.0,67,0.00,,,0.00,,2013-06-20 11:12:00,
2013-06-20 06:22:00,59.0,48.0,30.10,East,100,0.0,1.0,68,0.00,,,0.00,,2013-06-20 11:22:00,
2013-06-20 06:34:00,60.0,51.0,30.09,East,100,0.0,2.0,71,0.00,,,0.00,,2013-06-20 11:34:00,
2013-06-20 06:42:00,60.0,51.0,30.09,East,100,0.0,2.0,71,0.00,,,0.00,,2013-06-20 11:42:00,
2013-06-20 06:53:00,60.0,51.0,30.10,East,99,0.0,2.0,71,0.00,,,0.00,,2013-06-20 11:53:00,
2013-06-20 07:02:00,60.0,51.0,30.10,ESE,107,1.0,3.0,71,0.00,,,0.00,,2013-06-20 12:02:00,
2013-06-20 07:11:00,60.0,51.0,30.10,ESE,107,1.0,3.0,71,0.00,,,0.00,,2013-06-20 12:11:00,
2013-06-20 07:22:00,61.0,52.0,30.10,ESE,102,1.0,5.0,72,0.00,,,0.00,,2013-06-20 12:22:00,
2013-06-20 07:34:00,63.0,53.0,30.10,ESE,104,1.0,3.0,71,0.00,,,0.00,,2013-06-20 12:34:00,
2013-06-20 07:43:00,63.0,53.0,30.10,ESE,104,1.0,3.0,71,0.00,,,0.00,,2013-06-20 12:43:00,
2013-06-20 07:53:00,64.0,54.0,30.11,East,96,1.0,3.0,71,0.00,,,0.00,,2013-06-20 12:53:00,
2013-06-20 08:02:00,65.0,55.0,30.11,East,96,2.0,8.0,70,0.00,,,0.00,,2013-06-20 13:02:00,
2013-06-20 08:11:00,65.0,55.0,30.11,East,96,2.0,8.0,70,0.00,,,0.00,,2013-06-20 13:11:00,
2013-06-20 08:22:00,67.0,56.0,30.11,ESE,113,2.0,7.0,68,0.00,,,0.00,,2013-06-20 13:22:00,
2013-06-20 08:33:00,67.0,56.0,30.11,ESE,113,2.0,7.0,68,0.00,,,0.00,,2013-06-20 13:33:00,
2013-06-20 08:42:00,69.0,58.0,30.11,ESE,103,5.0,8.0,67,0.00,,,0.00,,2013-06-20 13:42:00,
2013-06-20 08:53:00,69.0,58.0,30.11,SE,130,2.0,8.0,67,0.00,,,0.00,,2013-06-20 13:53:00,
2013-06-20 09:02:00,69.0,58.0,30.11,SE,130,2.0,8.0,67,0.00,,,0.00,,2013-06-20 14:02:00,
2013-06-20 09:11:00,70.0,59.0,30.11,East,101,3.0,8.0,68,0.00,,,0.00,,2013-06-20 14:11:00,
2013-06-20 09:22:00,72.0,61.0,30.11,East,98,2.0,7.0,68,0.00,,,0.00,,2013-06-20 14:22:00,
2013-06-20 09:32:00,72.0,61.0,30.11,East,98,2.0,7.0,68,0.00,,,0.00,,2013-06-20 14:32:00,
2013-06-20 09:42:00,73.0,61.0,30.11,South,185,2.0,9.0,66,0.00,,,0.00,,2013-06-20 14:42:00,
2013-06-20 09:53:00,74.0,62.0,30.11,SE,124,3.0,6.0,66,0.00,,,0.00,,2013-06-20 14:53:00,
2013-06-20 10:02:00,74.0,62.0,30.11,SE,124,3.0,6.0,66,0.00,,,0.00,,2013-06-20 15:02:00,
2013-06-20 10:11:00,75.0,63.0,30.11,SE,131,2.0,8.0,66,0.00,,,0.00,,2013-06-20 15:11:00,
2013-06-20 10:22:00,76.0,64.0,30.11,ESE,113,4.0,8.0,66,0.00,,,0.00,,2013-06-20 15:22:00,
2013-06-20 10:33:00,76.0,64.0,30.11,ESE,113,4.0,8.0,66,0.00,,,0.00,,2013-06-20 15:33:00,
2013-06-20 10:43:00,77.0,64.0,30.10,ESE,105,2.0,8.0,64,0.00,,,0.00,,2013-06-20 15:43:00,
2013-06-20 10:53:00,77.0,64.0,30.10,South,178,3.0,6.0,64,0.00,,,0.00,,2013-06-20 15:53:00,
2013-06-20 11:01:00,77.0,64.0,30.10,South,178,3.0,6.0,64,0.00,,,0.00,,2013-06-20 16:01:00,
2013-06-20 11:12:00,78.0,64.0,30.10,ESE,121,4.0,9.0,62,0.00,,,0.00,,2013-06-20 16:12:00,
2013-06-20 11:22:00,79.0,64.0,30.10,SSE,159,2.0,8.0,61,0.00,,,0.00,,2013-06-20 16:22:00,
2013-06-20 11:33:00,79.0,64.0,30.10,SSE,159,2.0,8.0,61,0.00,,,0.00,,2013-06-20 16:33:00,
2013-06-20 11:42:00,80.0,65.0,30.10,SE,136,5.0,8.0,60,0.00,,,0.00,,2013-06-20 16:42:00,
2013-06-20 11:52:00,81.0,64.0,30.10,SE,128,3.0,10.0,57,0.00,,,0.00,,2013-06-20 16:52:00,
2013-06-20 12:02:00,81.0,64.0,30.10,SE,128,3.0,10.0,57,0.00,,,0.00,,2013-06-20 17:02:00,
2013-06-20 12:12:00,82.0,63.0,30.09,SE,139,3.0,8.0,52,0.00,,,0.00,,2013-06-20 17:12:00,
2013-06-20 12:22:00,82.0,63.0,30.09,SW,219,2.0,6.0,53,0.00,,,0.00,,2013-06-20 17:22:00,
2013-06-20 12:32:00,82.0,63.0,30.09,SW,219,2.0,6.0,53,0.00,,,0.00,,2013-06-20 17:32:00,
2013-06-20 12:43:00,82.0,63.0,30.09,SE,128,1.0,6.0,52,0.00,,,0.00,,2013-06-20 17:43:00,
2013-06-20 12:53:00,83.0,62.0,30.09,South,187,1.0,5.0,50,0.00,,,0.00,,2013-06-20 17:53:00,
2013-06-20 13:01:00,83.0,62.0,30.09,South,187,1.0,5.0,50,0.00,,,0.00,,2013-06-20 18:01:00,
2013-06-20 13:11:00,83.0,62.0,30.09,SSE,154,3.0,7.0,49,0.00,,,0.00,,2013-06-20 18:11:00,
2013-06-20 13:22:00,84.0,63.0,30.08,ESE,109,2.0,10.0,50,0.00,,,0.00,,2013-06-20 18:22:00,
2013-06-20 13:33:00,84.0,63.0,30.08,ESE,109,2.0,10.0,50,0.00,,,0.00,,2013-06-20 18:33:00,
2013-06-20 13:43:00,85.0,64.0,30.08,ESE,115,2.0,7.0,49,0.00,,,0.00,,2013-06-20 18:43:00,
2013-06-20 13:53:00,84.0,61.0,30.08,SE,128,4.0,9.0,46,0.00,,,0.00,,2013-06-20 18:53:00,
2013-06-20 14:01:00,84.0,61.0,30.08,SE,128,4.0,9.0,46,0.00,,,0.00,,2013-06-20 19:01:00,
2013-06-20 14:11:00,85.0,62.0,30.07,SE,132,3.0,10.0,46,0.00,,,0.00,,2013-06-20 19:11:00,
2013-06-20 14:22:00,85.0,64.0,30.06,ESE,103,2.0,8.0,49,0.00,,,0.00,,2013-06-20 19:22:00,
2013-06-20 14:34:00,85.0,64.0,30.06,ESE,103,2.0,8.0,49,0.00,,,0.00,,2013-06-20 19:34:00,
2013-06-20 14:43:00,85.0,62.0,30.06,ESE,121,2.0,8.0,47,0.00,,,0.00,,2013-06-20 19:43:00,
2013-06-20 14:52:00,85.0,63.0,30.06,South,178,1.0,6.0,48,0.00,,,0.00,,2013-06-20 19:52:00,
2013-06-20 15:02:00,85.0,63.0,30.06,South,178,1.0,6.0,48,0.00,,,0.00,,2013-06-20 20:02:00,
2013-06-20 15:11:00,85.0,62.0,30.05,SE,142,3.0,8.0,47,0.00,,,0.00,,2013-06-20 20:11:00,
2013-06-20 15:22:00,85.0,61.0,30.05,South,170,3.0,7.0,45,0.00,,,0.00,,2013-06-20 20:22:00,
2013-06-20 15:33:00,85.0,61.0,30.05,South,170,3.0,7.0,45,0.00,,,0.00,,2013-06-20 20:33:00,
2013-06-20 15:42:00,87.0,62.0,30.05,ESE,115,3.0,7.0,44,0.00,,,0.00,,2013-06-20 20:42:00,
2013-06-20 15:52:00,87.0,60.0,30.04,SW,217,3.0,10.0,41,0.00,,,0.00,,2013-06-20 20:52:00,
2013-06-20 16:01:00,87.0,60.0,30.04,SW,217,3.0,10.0,41,0.00,,,0.00,,2013-06-20 21:01:00,